www.pogodaiklimat.ru

Погода и климат >> Архив погоды >> Индонезия >> Масамба


ПОГОДА в Масамбе

  • Прогноз погоды в Масамбе
  • Монитор погоды в Масамбе

АРХИВ ПОГОДЫ в Масамбе

Время (UTC), дата Ветер
(напр.,м/с)
 
Видим.   Явления Облачность Т
(С)
Тd
(С)
f
(%)
Тe
(С)
Тes
(С)
Комфортность P
(гПа)
Po
(гПа)
Тmin
(С)
Tmax
(С)
R
(мм)
R24
(мм)
S
(см)
03 9.09 Ю 1 9000 м 4/4 500 м
[Cu med, cong As op]
+30.2 +23.2 66 +40 +55 опасность
солнечного
удара
1013.8 1009.3
06 9.09 Ю 3 9000 м 4/4 500 м
[Cu med, cong As trans]
+31.4 +22.0 57 +40 +49 очень
душно
1010.6 1006.1
09 9.09 штиль 0 10 км 4/4 500 м
[Cu med, cong As trans]
+31.7 +23.3 61 +42 +43 опасность
перегрева
1009.9 1005.5
12 9.09 штиль 0 8000 м 8/3 500 м
[Sc As op]
+25.8 +22.8 84 +34 +34 очень
душно
1012.9 1008.4 +32.2
15 9.09 штиль 0 8000 м 8/3 500 м
[Sc As op]
+24.0 +21.6 86 +31 +31 очень
душно
1014.0 1009.5
18 9.09 СЗ 2 8000 м 8/3 500 м
[Sc As op]
+22.0 +20.0 88 +28 +28 душно 1013.5 1009.0
21 9.09 штиль 0 8000 м 8/3 500 м
[Sc As op]
+20.2 +18.8 92 +23 +23 комфорт 1013.5 1009.0
00 10.09 С 2 10 км 3/3 500 м
[Sc As trans Ci fib]
+28.6 +22.9 71 +38 +42 очень
душно
1014.5 1010.0 +20.0
03 10.09 ЮЗ 2 10 км 3/3 500 м
[Sc As trans Ci fib]
+29.5 +18.9 53 +35 +49 очень
душно
1014.4 1009.9
06 10.09 Ю 2 9000 м 3/3 500 м
[Cu med, cong As trans]
+32.2 +18.0 43 +37 +49 очень
душно
1011.5 1007.0
09 10.09 Ю 1 9000 м 3/3 500 м
[Cu med, cong As trans]
+32.0 +18.1 44 +37 +38 очень
душно
1010.8 1006.3
12 10.09 С 1 8000 м 1/1 540 м
[Sc As trans]
+25.6 +20.4 73 +32 +32 очень
душно
1014.1 1009.6 +33.0
15 10.09 С 3 8000 м 1/1 540 м
[Sc As trans]
+23.8 +19.7 78 +29 +29 душно 1015.6 1011.1
18 10.09 С 3 8000 м 5/3 540 м
[Sc As op]
+22.6 +18.4 77 +28 +28 душно 1014.8 1010.3
21 10.09 С 3 8000 м 5/3 540 м
[Sc As op]
+22.6 +18.4 77 +28 +28 душно 1014.7 1010.2
00 11.09 штиль 0 8000 м 3/1 500 м
[Sc As op]
+24.6 +20.6 78 +31 +36 очень
душно
1015.9 1011.3 +20.4
03 11.09 Ю 2 9000 м 3/3 500 м
[Cu med, cong As trans]
+29.0 +20.2 59 +35 +50 очень
душно
1014.4 1009.9
06 11.09 СВ 2 9000 м 4/3 500 м
[Cu med, cong Ac trans Ci fib]
+31.2 +20.1 52 +38 +49 очень
душно
1011.6 1007.1
09 11.09 ЮВ 2 9000 м 4/3 500 м
[Cu med, cong Ac trans Ci fib]
+30.4 +19.6 52 +36 +37 очень
душно
1010.5 1006.0
12 11.09 штиль 0 8000 м 4/3 500 м
[Sc As trans Ci fib]
+25.1 +20.9 78 +32 +32 очень
душно
1013.3 1008.8 +32.0
15 11.09 штиль 0 8000 м 4/3 500 м
[Sc As trans Ci fib]
+23.2 +19.4 79 +30 +30 очень
душно
1014.8 1010.3
18 11.09 С 4 8000 м 9/4 500 м
[Sc As op]
+22.2 +18.0 77 +27 +27 душно 1014.2 1009.7
21 11.09 СЗ 2 8000 м 6/3 500 м
[Sc As op]
+22.1 +18.4 80 +27 +27 душно 1014.3 1009.8
00 12.09 С 2 9000 м 3/1 500 м
[Cu hum As trans Ci fib]
+24.3 +19.1 73 +29 +34 душно 1015.5 1011.0 +21.8
03 12.09 ЮЗ 2 9000 м 4/3 500 м
[Cu med, cong Ac trans Ci fib]
+28.8 +20.3 60 +35 +50 очень
душно
1014.5 1010.0
06 12.09 Ю 3 9000 м 5/4 500 м
[Cu med, cong As trans Ci fib]
+30.8 +21.3 57 +39 +46 очень
душно
1011.5 1007.0
09 12.09 Ю 2 8000 м 4/4 500 м
[]
+29.4 +22.0 64 +38 +39 очень
душно
1011.2 1006.7
12 12.09 СЗ 1 8000 м 8/3 500 м
[Sc As op]
+26.8 +22.8 79 +36 +36 очень
душно
1013.7 1009.2 +31.2
15 12.09 С 3 8000 м 9/3 500 м
[Sc As op]
+25.0 +21.9 83 +32 +32 очень
душно
1014.7 1010.1
18 12.09 штиль 0 8000 м 8/3 500 м
[Sc As op]
+23.6 +19.8 79 +29 +29 душно 1013.5 1009.0
21 12.09 С 4 8000 м 5/3 500 м
[Sc As op]
+22.3 +17.6 75 +27 +27 душно 1013.7 1009.2
00 13.09 С 1 9000 м 9/1 540 м
[Sc Ac As]
+24.4 +20.4 78 +30 +32 очень
душно
1015.5 1011.0 +22.2
03 13.09 ЮЗ 3 9000 м 6/4 540 м
[Cu med, cong As op Ci fib]
+29.0 +20.2 59 +35 +45 очень
душно
1014.9 1010.4
06 13.09 ЮЗ 2 9000 м 6/4 300 м
[Cu med, cong As trans Ci fib]
+31.2 +21.1 55 +39 +47 очень
душно
1011.6 1007.1
09 13.09 штиль 0 8000 м 4/3 500 м
[Sc As trans Ci fib]
+30.5 +21.6 59 +39 +40 очень
душно
1010.8 1006.3
12 13.09 штиль 0 8000 м 5/3 500 м
[Sc As op Ci fib]
+26.7 +21.7 74 +34 +34 очень
душно
1013.5 1009.0 +31.2
15 13.09 штиль 0 8000 м 5/3 500 м
[Sc As op Ci fib]
+24.2 +20.8 81 +30 +30 очень
душно
1014.8 1010.3
18 13.09 штиль 0 8000 м 5/3 500 м
[Sc As op Ci fib]
+23.0 +20.1 84 +30 +30 очень
душно
1013.7 1008.2
21 13.09 штиль 0 8000 м 5/3 500 м
[Sc As op Ci fib]
+22.3 +19.9 86 +28 +28 душно 1014.2 1009.7
00 14.09 штиль 0 8000 м 4/1 500 м
[Sc As op Ci fib]
+25.0 +21.2 79 +32 +37 очень
душно
1015.5 1011.0 +21.8
03 14.09 ЮВ 2 8000 м 4/3 500 м
[Cu med, cong As op Ci fib]
+29.4 +19.1 54 +35 +48 очень
душно
1014.1 1009.6
06 14.09 ЮВ 4 8000 м 4/4 120 м
[Cb calv Ac trans Ci fib]
+31.5 +20.4 52 +38 +46 очень
душно
1011.0 1006.5
09 14.09 ЮВ 2 8000 м 4/3 500 м
[Cu med, cong As op Ci fib]
+30.8 +17.3 44 +35 +35 очень
душно
1010.5 1006.0
12 14.09 штиль 0 8000 м 1/1 540 м
[Sc As trans]
+26.6 +22.4 78 +35 +35 очень
душно
1013.4 1008.9 +32.0
15 14.09 С 2 9000 м 3/1 540 м
[Sc As trans]
+24.8 +22.0 84 +32 +32 очень
душно
1014.1 1009.6
18 14.09 С 1 9000 м 3/1 540 м
[Sc As op]
+23.8 +21.9 89 +31 +31 очень
душно
1012.8 1008.3
21 14.09 штиль 0 9000 м 3/1 540 м
[Sc As trans]
+22.8 +21.2 91 +30 +30 очень
душно
1012.9 1008.4
00 15.09 СВ 1 9000 м 3/1 540 м
[Sc As trans]
+25.2 +20.9 77 +32 +37 очень
душно
1014.2 1009.7 +22.2
03 15.09 ЮЗ 1 8000 м 4/4 540 м
[Cu med, cong As trans Ci fib]
+29.2 +21.8 64 +37 +52 опасность
солнечного
удара
1012.7 1008.2
06 15.09 ЮЗ 2 9000 м 5/3 500 м
[Cu med, cong Ac trans Ci fib]
+31.8 +21.1 53 +39 +50 очень
душно
1009.8 1005.4
09 15.09 Ю 2 9000 м 5/3 500 м
[Sc As trans Ci fib]
+31.2 +20.4 53 +38 +39 очень
душно
1009.1 1004.5
12 15.09 Ю 1 8000 м 5/3 500 м
[Sc As trans Ci fib]
+26.6 +22.1 76 +34 +34 очень
душно
1012.4 1007.9 +23.6
15 15.09 С 2 8000 м 8/3 500 м
[Sc As op]
+25.0 +22.0 83 +32 +32 очень
душно
1013.2 1008.7
18 15.09 С 2 8000 м 8/3 500 м
[Sc As op]
+23.6 +21.7 89 +30 +30 очень
душно
1012.2 1007.8
21 15.09 С 2 8000 м 8/3 500 м
[Sc As op]
+23.4 +20.6 84 +31 +31 очень
душно
1012.4 1007.9

 

Местоположение метеостанции Масамба (Индонезия): широта -2.55 долгота 120.36 высота над уровнем моря 50 м.

В архиве по умолчанию представлена погода в Масамбе за последнюю неделю. Архивные данные за месяц целиком и за предыдущие месяцы, начиная с января 2011 года, Вы можете получить, выбрав интересующий диапазон дат из раскрывающегося списка и нажав кнопку "Ввод!".


*Определитесь, кто Вы:
робот инопланетянин человек

Внимание! Время в таблицах - всемирное. Для получения местного времени необходимо прибавить поправку, которая равна 8 ч.

Смотрите также архив погоды в соседних городах и на ближайших метеорологических станциях:

Погода в Посо (Индонезия) (136 км)
Погода в Маджене (Индонезия) (151 км)
Погода в Палу (Индонезия) (219 км)
Погода в Колаке (Индонезия) (234 км)
Погода в Кендари (Индонезия) (287 км)
Погода в Аэропорту Султана Хасануддин (Индонезия) (294 км)
Погода в Уджангпанданге (Индонезия) (294 км)
Погода в Лувуке (Индонезия) (326 км)
Погода в Толи-Толи (Индонезия) (400 км)
Погода в Бау-Бау (Индонезия) (410 км)

Пояснения к столбцам:

Ветер - указаны скорость ветра в м/с - средняя за 10 мин, порывы в срок и между сроками (в фигурных скобках) и направление, откуда дует ветер: С - северный, СВ - северо-восточный, В - восточный, ЮВ - юго-восточный, Ю - южный, ЮЗ - юго-западный, З - западный, СЗ - северо-западный.
Видимость - горизонтальная дальность видимости в метрах или километрах. При видимости от 1 до 10 км при отсутствии осадков обычно наблюдается дымка, при ухудшении видимости до 1 км и менее - туман. В сухую погоду видимость может ухудшаться дымом, пылью или мглою.
Явления - указаны атмосферные явления, наблюдавшиеся в срок или в последний час перед сроком; фигурными скобками обозначены явления, наблюдавшиеся между сроками (за 1-3 часа до срока); квадратными скобками обозначены град или гололедные отложения с указанием их диаметра в мм.
Облачность - указаны через наклонную черту общая и нижняя облачность в баллах и высота нижней границы облаков в метрах; квадратными скобками обозначены формы облаков: Ci - перистые, Cs - перисто-слоистые, Cc - перисто-кучевые, Ac - высококучевые, As - высокослоистые, Sc - слоисто-кучевые, Ns - слоисто-дождевые, Cu - кучевые, Cb - кучево-дождевые. Подробнее классификацию облаков см. в Атласе облаков (PDF).
T - Температура воздуха - температура, измеренная на высоте 2 м над землей.
Td - Температура точки росы - температура, при понижении до которой содержащийся в воздухе водяной пар достигнет насыщения.
f - Относительная влажность воздуха - влажноcть воздуха, измеренная на высоте 2 м над землей.
Te - Эффективная температура - температура, которую ощущает одетый по сезону человек в тени. Характеристика душности погоды. При расчете учитывается влияние влажности воздуха и скорости ветра на теплоощущения человека.
Tes - Эффективная температура на солнце - температура, которую ощущает человек, с поправкой на солнечный нагрев. Характеристика знойности погоды. Зависит от высоты солнца над горизонтом, облачности и скорости ветра. Ночью, в пасмурную погоду, а также при ветре 12 м/с и более поправка равна нулю.
P - Атмосферное давление - приведенное к уровню моря атмосферное давление.
Po - Атмосферное давление - измеренное на уровне метеостанции атмосферное давление.
Tmin - Минимальная температура - минимум температуры воздуха на высоте 2 м над землей.
Tmax - Максимальная температура - максимум температуры воздуха на высоте 2 м над землей.
R - Количество осадков - Количество выпавших осадков за период времени, мм. При наведении курсора мыши на число - период времени, за который выпало указанное количество осадков.
R24 - Количество осадков - Количество выпавших осадков за 24 часа, мм.
S - Снежный покров - Высота снежного покрова, см. При наведении курсора мыши на число - состояние снежного покрова и степень покрытия местности в баллах.